Satellite: NOAA-11 Catalog number: 19531 Epoch time: 12116.74669826 Element set: 0900 Inclination: 098.7317 deg RA of node: 203.0052 deg Eccentricity: 0.0011616 Arg of perigee: 017.5932 deg Mean anomaly: 342.5647 deg Mean motion: 14.14962539 rev/day Decay rate: -1.33e-06 rev/day^2 Epoch rev: 21709 Checksum: 290
Satellite: NOAA-12 Catalog number: 21263 Epoch time: 12117.80813743 Element set: 388 Inclination: 098.7301 deg RA of node: 139.7100 deg Eccentricity: 0.0013811 Arg of perigee: 354.4501 deg Mean anomaly: 005.6999 deg Mean motion: 14.25490203 rev/day Decay rate: 9.6e-07 rev/day^2 Epoch rev: 8921 Checksum: 281
Satellite: MET-3/5 Catalog number: 21655 Epoch time: 12116.80706051 Element set: 0393 Inclination: 082.5595 deg RA of node: 189.1874 deg Eccentricity: 0.0014887 Arg of perigee: 093.8445 deg Mean anomaly: 266.4373 deg Mean motion: 13.17034727 rev/day Decay rate: 5.1e-07 rev/day^2 Epoch rev: 99500 Checksum: 319
Satellite: MET-2/21 Catalog number: 22782 Epoch time: 12116.80268649 Element set: 0402 Inclination: 082.5470 deg RA of node: 074.0728 deg Eccentricity: 0.0021216 Arg of perigee: 302.4169 deg Mean anomaly: 057.4943 deg Mean motion: 13.83680352 rev/day Decay rate: 1.23e-06 rev/day^2 Epoch rev: 94192 Checksum: 289
Satellite: OKEAN-4 Catalog number: 23317 Epoch time: 12116.96957581 Element set: 0914 Inclination: 082.5389 deg RA of node: 080.0153 deg Eccentricity: 0.0021836 Arg of perigee: 159.2373 deg Mean anomaly: 200.9732 deg Mean motion: 14.83708071 rev/day Decay rate: 1.550e-05 rev/day^2 Epoch rev: 94706 Checksum: 305
Satellite: NOAA-14 Catalog number: 23455 Epoch time: 12116.96328420 Element set: 0885 Inclination: 098.8267 deg RA of node: 201.1158 deg Eccentricity: 0.0010233 Arg of perigee: 105.9884 deg Mean anomaly: 254.2413 deg Mean motion: 14.13892025 rev/day Decay rate: 6.7e-07 rev/day^2 Epoch rev: 89341 Checksum: 297
Satellite: NOAA-15 Catalog number: 25338 Epoch time: 12116.74898713 Element set: 0239 Inclination: 098.6877 deg RA of node: 104.1609 deg Eccentricity: 0.0009626 Arg of perigee: 260.7076 deg Mean anomaly: 099.2981 deg Mean motion: 14.25057065 rev/day Decay rate: 1.35e-06 rev/day^2 Epoch rev: 72538 Checksum: 333
Satellite: RESURS Catalog number: 25394 Epoch time: 12116.92435917 Element set: 0076 Inclination: 098.3180 deg RA of node: 107.9210 deg Eccentricity: 0.0002305 Arg of perigee: 048.7071 deg Mean anomaly: 311.4309 deg Mean motion: 14.24284010 rev/day Decay rate: 8.0e-07 rev/day^2 Epoch rev: 71696 Checksum: 267
Satellite: FENGYUN1 Catalog number: 25730 Epoch time: 12117.46611332 Element set: 591 Inclination: 098.8449 deg RA of node: 077.3598 deg Eccentricity: 0.0018807 Arg of perigee: 147.9960 deg Mean anomaly: 212.2355 deg Mean motion: 14.09428228 rev/day Decay rate: 1.796e-05 rev/day^2 Epoch rev: 66732 Checksum: 327
Satellite: OKEAN-0 Catalog number: 25860 Epoch time: 12116.92911528 Element set: 0630 Inclination: 097.9309 deg RA of node: 080.6586 deg Eccentricity: 0.0001913 Arg of perigee: 060.0405 deg Mean anomaly: 300.0995 deg Mean motion: 14.74162387 rev/day Decay rate: 6.41e-06 rev/day^2 Epoch rev: 68687 Checksum: 302
Satellite: NOAA-16 Catalog number: 26536 Epoch time: 12117.19438042 Element set: 724 Inclination: 099.0985 deg RA of node: 158.5011 deg Eccentricity: 0.0009945 Arg of perigee: 227.0550 deg Mean anomaly: 132.9813 deg Mean motion: 14.12727334 rev/day Decay rate: -4.0e-07 rev/day^2 Epoch rev: 59769 Checksum: 307
Satellite: NOAA-17 Catalog number: 27453 Epoch time: 12116.97219053 Element set: 0683 Inclination: 098.3394 deg RA of node: 146.6360 deg Eccentricity: 0.0010865 Arg of perigee: 313.2542 deg Mean anomaly: 046.7739 deg Mean motion: 14.24421480 rev/day Decay rate: 3.08e-06 rev/day^2 Epoch rev: 51132 Checksum: 294
Satellite: NOAA-18 Catalog number: 28654 Epoch time: 12116.89926110 Element set: 0158 Inclination: 099.0422 deg RA of node: 074.5655 deg Eccentricity: 0.0013737 Arg of perigee: 305.1944 deg Mean anomaly: 054.7937 deg Mean motion: 14.11637454 rev/day Decay rate: 1.3e-07 rev/day^2 Epoch rev: 35718 Checksum: 310
Satellite: NOAA-19 Catalog number: 33591 Epoch time: 12116.96633159 Element set: 0350 Inclination: 098.8617 deg RA of node: 057.4109 deg Eccentricity: 0.0014030 Arg of perigee: 165.3277 deg Mean anomaly: 194.8327 deg Mean motion: 14.11326807 rev/day Decay rate: 5.08e-06 rev/day^2 Epoch rev: 16564 Checksum: 308
/EX SB KEPS @ AMSAT $ORB12117.M Orbital Elements 12117.MISC
HR AMSAT ORBITAL ELEMENTS FOR MANNED AND MISCELLANEOUS SATELLITES FROM WA5QGD FORT WORTH,TX April 26, 2012 Send SUBSCRIBE KEPS/UNSUBSCRIBE KEPS to [email protected] only BID: ORB12117.M TO ALL RADIO AMATEURS BT
Satellite: HUBBLE Catalog number: 20580 Epoch time: 12117.24583394 Element set: 990 Inclination: 028.4682 deg RA of node: 123.4295 deg Eccentricity: 0.0003528 Arg of perigee: 220.8182 deg Mean anomaly: 139.2245 deg Mean motion: 15.02409294 rev/day Decay rate: 2.166e-05 rev/day^2 Epoch rev: 691 Checksum: 281
Satellite: ISS Catalog number: 25544 Epoch time: 12118.04916667 Element set: 447 Inclination: 051.6424 deg RA of node: 018.1816 deg Eccentricity: 0.0009380 Arg of perigee: 287.1428 deg Mean anomaly: 267.1485 deg Mean motion: 15.57412237 rev/day Decay rate: 1.8899e-04 rev/day^2 Epoch rev: 77004 Checksum: 316
Satellite: CO-58 Catalog number: 28895 Epoch time: 12117.29292389 Element set: 159 Inclination: 097.9199 deg RA of node: 345.8281 deg Eccentricity: 0.0016644 Arg of perigee: 317.2872 deg Mean anomaly: 042.7014 deg Mean motion: 14.60578417 rev/day Decay rate: 1.076e-05 rev/day^2 Epoch rev: 34608 Checksum: 347
Satellite: FALCON Catalog number: 30776 Epoch time: 12117.65931104 Element set: 333 Inclination: 035.4310 deg RA of node: 231.4836 deg Eccentricity: 0.0001794 Arg of perigee: 309.0985 deg Mean anomaly: 050.9570 deg Mean motion: 15.07189370 rev/day Decay rate: 6.792e-05 rev/day^2 Epoch rev: 28247 Checksum: 293
Satellite: MAST Catalog number: 31126 Epoch time: 12116.92689336 Element set: 0449 Inclination: 097.8760 deg RA of node: 131.0831 deg Eccentricity: 0.0092694 Arg of perigee: 273.8073 deg Mean anomaly: 085.2544 deg Mean motion: 14.54115719 rev/day Decay rate: 7.08e-06 rev/day^2 Epoch rev: 26667 Checksum: 318
Satellite: CAPE1 Catalog number: 31130 Epoch time: 12116.57442125 Element set: 0455 Inclination: 097.8817 deg RA of node: 127.1658 deg Eccentricity: 0.0100453 Arg of perigee: 287.7305 deg Mean anomaly: 071.2949 deg Mean motion: 14.52879645 rev/day Decay rate: 7.59e-06 rev/day^2 Epoch rev: 26613 Checksum: 310
Satellite: COMPASS Catalog number: 32787 Epoch time: 12117.61946835 Element set: 286 Inclination: 097.8045 deg RA of node: 180.0911 deg Eccentricity: 0.0014436 Arg of perigee: 226.1556 deg Mean anomaly: 133.8482 deg Mean motion: 14.83803680 rev/day Decay rate: 3.942e-05 rev/day^2 Epoch rev: 21616 Checksum: 307
Satellite: AAUSAT2 Catalog number: 32788 Epoch time: 12116.85838937 Element set: 0278 Inclination: 097.8078 deg RA of node: 179.6992 deg Eccentricity: 0.0013745 Arg of perigee: 228.8371 deg Mean anomaly: 131.1688 deg Mean motion: 14.84097893 rev/day Decay rate: 3.278e-05 rev/day^2 Epoch rev: 21607 Checksum: 367
Satellite: DO-64 Catalog number: 32789 Epoch time: 12116.88865242 Element set: 0295 Inclination: 097.8159 deg RA of node: 181.5587 deg Eccentricity: 0.0013981 Arg of perigee: 225.0692 deg Mean anomaly: 134.9406 deg Mean motion: 14.85445676 rev/day Decay rate: 6.364e-05 rev/day^2 Epoch rev: 21611 Checksum: 347
Satellite: CO-66 Catalog number: 32791 Epoch time: 12117.65684096 Element set: 277 Inclination: 097.8035 deg RA of node: 179.9082 deg Eccentricity: 0.0014717 Arg of perigee: 227.2499 deg Mean anomaly: 132.7493 deg Mean motion: 14.83252997 rev/day Decay rate: 2.595e-05 rev/day^2 Epoch rev: 21610 Checksum: 348
Satellite: RS-30 Catalog number: 32953 Epoch time: 12117.53601736 Element set: 729 Inclination: 082.5028 deg RA of node: 327.2670 deg Eccentricity: 0.0019715 Arg of perigee: 061.8010 deg Mean anomaly: 298.5077 deg Mean motion: 12.43022702 rev/day Decay rate: 1.0e-07 rev/day^2 Epoch rev: 17814 Checksum: 271
Satellite: TACSAT-3 Catalog number: 35001 Epoch time: 12116.92202569 Element set: 0979 Inclination: 040.4419 deg RA of node: 024.3411 deg Eccentricity: 0.0018237 Arg of perigee: 245.3326 deg Mean anomaly: 114.5583 deg Mean motion: 16.11353863 rev/day Decay rate: 1.342310e-02 rev/day^2 Epoch rev: 16621 Checksum: 266
Satellite: PHARMSAT Catalog number: 35002 Epoch time: 12117.22009461 Element set: 877 Inclination: 040.4637 deg RA of node: 037.6724 deg Eccentricity: 0.0005075 Arg of perigee: 220.7717 deg Mean anomaly: 139.2731 deg Mean motion: 15.74538273 rev/day Decay rate: 1.20478e-03 rev/day^2 Epoch rev: 16610 Checksum: 277
Satellite: METEOR-M Catalog number: 35865 Epoch time: 12117.63833067 Element set: 357 Inclination: 098.6589 deg RA of node: 172.9175 deg Eccentricity: 0.0002093 Arg of perigee: 181.6841 deg Mean anomaly: 178.4334 deg Mean motion: 14.21860099 rev/day Decay rate: -1.1e-07 rev/day^2 Epoch rev: 13527 Checksum: 312
Satellite: RS-38 Catalog number: 35869 Epoch time: 12117.59665150 Element set: 366 Inclination: 098.6526 deg RA of node: 172.8826 deg Eccentricity: 0.0004294 Arg of perigee: 192.1735 deg Mean anomaly: 167.9370 deg Mean motion: 14.22067107 rev/day Decay rate: 3.67e-06 rev/day^2 Epoch rev: 13528 Checksum: 331
Satellite: JUGNU Catalog number: 37839 Epoch time: 12117.30200945 Element set: 136 Inclination: 019.9613 deg RA of node: 312.5705 deg Eccentricity: 0.0018999 Arg of perigee: 009.5326 deg Mean anomaly: 350.5217 deg Mean motion: 14.12045694 rev/day Decay rate: 6.19e-06 rev/day^2 Epoch rev: 2790 Checksum: 290
